TimeEST,TemperatureF,Dew PointF,Humidity,Sea Level PressureIn,VisibilityMPH,Wind Direction,Wind SpeedMPH,Gust SpeedMPH,PrecipitationIn,Events,Conditions,WindDirDegrees,DateUTC
12:53 AM,21.9,18.0,85,29.80,7.0,SE,6.9,-,0.00,Snow,Light Snow,130,2014-01-19 05:53:00
1:05 AM,21.9,18.0,85,29.76,9.0,SE,6.9,-,0.00,,Overcast,140,2014-01-19 06:05:00
1:14 AM,21.9,19.0,89,29.76,10.0,SSE,5.8,-,0.00,,Overcast,150,2014-01-19 06:14:00
1:53 AM,23.0,19.0,85,29.78,10.0,SE,5.8,-,0.00,,Overcast,140,2014-01-19 06:53:00
2:53 AM,23.0,19.9,88,29.79,9.0,SE,4.6,-,0.00,,Overcast,140,2014-01-19 07:53:00
3:26 AM,23.0,19.9,88,29.76,10.0,Calm,Calm,-,N/A,,Overcast,0,2014-01-19 08:26:00
3:46 AM,23.0,19.9,88,29.76,5.0,Calm,Calm,-,0.00,Snow,Light Snow,0,2014-01-19 08:46:00
3:53 AM,24.1,21.0,88,29.80,4.0,Calm,Calm,-,0.00,Snow,Light Snow,0,2014-01-19 08:53:00
4:19 AM,24.1,19.9,84,29.76,5.0,Calm,Calm,-,0.00,Snow,Light Snow,0,2014-01-19 09:19:00
4:53 AM,24.1,21.0,88,29.80,9.0,Calm,Calm,-,0.00,,Overcast,0,2014-01-19 09:53:00
5:38 AM,25.0,21.9,88,29.76,10.0,WSW,5.8,-,N/A,,Overcast,240,2014-01-19 10:38:00
5:46 AM,26.1,21.9,84,29.77,10.0,West,4.6,-,N/A,,Overcast,260,2014-01-19 10:46:00
5:53 AM,26.1,21.9,84,29.81,10.0,West,8.1,-,N/A,,Overcast,260,2014-01-19 10:53:00
6:17 AM,27.0,21.9,81,29.79,10.0,West,6.9,-,N/A,,Overcast,280,2014-01-19 11:17:00
6:53 AM,26.1,21.9,84,29.84,10.0,West,6.9,-,N/A,,Overcast,280,2014-01-19 11:53:00
7:53 AM,26.1,21.0,81,29.88,9.0,West,8.1,-,N/A,,Overcast,280,2014-01-19 12:53:00
8:53 AM,26.1,19.0,75,29.91,9.0,West,11.5,19.6,N/A,,Overcast,280,2014-01-19 13:53:00
9:53 AM,25.0,18.0,75,29.94,10.0,West,15.0,20.7,N/A,,Overcast,270,2014-01-19 14:53:00
10:53 AM,26.1,18.0,71,29.95,10.0,WSW,10.4,-,N/A,,Overcast,250,2014-01-19 15:53:00
11:53 AM,26.1,19.0,75,29.94,10.0,WSW,10.4,-,N/A,,Mostly Cloudy,240,2014-01-19 16:53:00
12:30 PM,27.0,18.0,69,29.88,10.0,WSW,16.1,-,N/A,,Scattered Clouds,240,2014-01-19 17:30:00
12:53 PM,28.0,19.0,69,29.90,10.0,WSW,13.8,-,N/A,,Partly Cloudy,240,2014-01-19 17:53:00
1:53 PM,28.9,19.9,69,29.88,10.0,WSW,13.8,23.0,N/A,,Clear,240,2014-01-19 18:53:00
2:53 PM,30.9,21.0,67,29.87,10.0,SW,13.8,23.0,N/A,,Scattered Clouds,230,2014-01-19 19:53:00
3:53 PM,33.1,21.0,61,29.86,10.0,SW,12.7,25.3,N/A,,Clear,220,2014-01-19 20:53:00
4:53 PM,33.1,21.0,61,29.84,10.0,SW,10.4,-,N/A,,Clear,220,2014-01-19 21:53:00
5:53 PM,32.0,21.9,66,29.83,10.0,SW,11.5,-,N/A,,Clear,220,2014-01-19 22:53:00
6:53 PM,32.0,21.0,64,29.82,10.0,SW,13.8,20.7,N/A,,Clear,220,2014-01-19 23:53:00
7:53 PM,33.1,21.9,64,29.80,10.0,SSW,12.7,23.0,N/A,,Clear,210,2014-01-20 00:53:00
8:53 PM,34.0,21.9,61,29.78,10.0,SSW,11.5,-,N/A,,Clear,210,2014-01-20 01:53:00
9:53 PM,34.0,21.9,61,29.78,10.0,SW,15.0,21.9,N/A,,Clear,230,2014-01-20 02:53:00
10:53 PM,33.1,21.9,64,29.79,10.0,SW,8.1,-,N/A,,Clear,220,2014-01-20 03:53:00
11:53 PM,34.0,23.0,64,29.75,10.0,SSW,10.4,19.6,N/A,,Clear,210,2014-01-20 04:53:00